TimeMDT,TemperatureF,Dew PointF,Humidity,Sea Level PressureIn,VisibilityMPH,Wind Direction,Wind SpeedMPH,Gust SpeedMPH,PrecipitationIn,Events,Conditions,WindDirDegrees,DateUTC
12:53 AM,52.0,28.9,41,29.93,10.0,Calm,Calm,-,N/A,,Scattered Clouds,0,2012-10-15 06:53:00
1:53 AM,53.1,28.9,40,29.90,10.0,Calm,Calm,-,N/A,,Overcast,0,2012-10-15 07:53:00
2:53 AM,48.0,28.9,48,29.91,10.0,West,4.6,-,N/A,,Overcast,280,2012-10-15 08:53:00
3:53 AM,44.1,28.0,53,29.89,10.0,SSE,3.5,-,N/A,,Mostly Cloudy,160,2012-10-15 09:53:00
4:53 AM,44.1,28.0,53,29.87,10.0,NNE,3.5,-,N/A,,Mostly Cloudy,20,2012-10-15 10:53:00
5:53 AM,43.0,28.0,56,29.86,10.0,Calm,Calm,-,N/A,,Mostly Cloudy,0,2012-10-15 11:53:00
6:53 AM,44.1,28.0,53,29.86,10.0,Calm,Calm,-,N/A,,Overcast,0,2012-10-15 12:53:00
7:53 AM,48.9,33.1,54,29.87,10.0,West,8.1,-,0.00,Rain,Light Rain,280,2012-10-15 13:53:00
8:53 AM,52.0,37.0,57,29.87,10.0,West,12.7,18.4,0.00,,Overcast,260,2012-10-15 14:53:00
9:53 AM,50.0,37.0,61,29.89,10.0,SW,8.1,-,N/A,,Overcast,220,2012-10-15 15:53:00
10:53 AM,51.1,37.0,59,29.89,9.0,SW,10.4,-,N/A,,Overcast,220,2012-10-15 16:53:00
11:53 AM,52.0,37.0,57,29.88,6.0,West,13.8,20.7,N/A,,Haze,260,2012-10-15 17:53:00
12:53 PM,54.0,37.0,53,29.88,10.0,WSW,16.1,23.0,N/A,,Overcast,240,2012-10-15 18:53:00
1:53 PM,55.0,37.0,51,29.87,9.0,West,15.0,21.9,N/A,,Overcast,260,2012-10-15 19:53:00
2:53 PM,55.0,37.0,51,29.88,8.0,WSW,15.0,24.2,0.00,,Overcast,250,2012-10-15 20:53:00
3:53 PM,55.9,37.0,49,29.89,10.0,WSW,16.1,26.5,N/A,,Mostly Cloudy,240,2012-10-15 21:53:00
4:53 PM,57.9,35.1,42,29.87,10.0,West,16.1,24.2,N/A,,Overcast,260,2012-10-15 22:53:00
5:18 PM,55.4,37.4,51,29.96,10.0,NNW,12.7,-,N/A,,Mostly Cloudy,330,2012-10-15 23:18:00
5:53 PM,55.9,34.0,44,29.89,10.0,WNW,8.1,17.3,N/A,,Clear,300,2012-10-15 23:53:00
6:53 PM,53.1,30.9,43,29.89,10.0,West,8.1,19.6,N/A,,Clear,270,2012-10-16 00:53:00
7:53 PM,52.0,32.0,47,29.90,10.0,West,10.4,-,N/A,,Clear,260,2012-10-16 01:53:00
8:53 PM,48.0,33.1,56,29.89,10.0,SW,4.6,-,N/A,,Partly Cloudy,230,2012-10-16 02:53:00
9:53 PM,48.9,34.0,56,29.88,10.0,Calm,Calm,-,N/A,,Clear,0,2012-10-16 03:53:00
10:53 PM,46.0,33.1,61,29.85,10.0,South,3.5,-,N/A,,Clear,170,2012-10-16 04:53:00
11:53 PM,45.0,33.1,63,29.82,10.0,South,3.5,-,N/A,,Overcast,190,2012-10-16 05:53:00